Tracking 33747 objects as of 12-Apr-2026
HD Live streaming from Space Station
objects crossing your sky now

STARLINK-36908

Track STARLINK-36908 now!
10-day predictions
STARLINK-36908 is classified as:


NORAD ID: 67945
Int'l Code: 2026-037P
Perigee: 489.6 km
Apogee: 490.8 km
Inclination: 43.0 °
Period: 94.3 minutes
Semi major axis: 6861 km
RCS: Unknown
Launch date: February 24, 2026
Source: United States (US)
Launch site: AIR FORCE EASTERN TEST RANGE (AFETR)
Your satellite tracking list
Your tracking list is empty




NASA's NSSDC Master Catalog

Two Line Element Set (TLE):
1 67945U 26037P   26101.44824219  .00015785  00000-0  58198-3 0  9993
2 67945  42.9998   5.4619 0000813 282.0772  77.9989 15.27575409  8359
Source of the keplerian elements: AFSPC